Regional Weather Roundup
Issued by NWS

Home | Current Version | Previous Version | Graphics & Text | Print | Product List | Glossary On
Versions: 1 2 3 4 5 6 7 8 9 10 11 12 13 14 15 16 17 18 19 20 21 22 23 24 25 26 27 28 29 30 31 32 33 34 35 36 37 38 39 40 41 42 43 44 45 46 47 48 49 50
000
ASUS43 KOAX 170902
RWRNE

WEATHER ROUNDUP FOR NEBRASKA
NATIONAL WEATHER SERVICE OMAHA NE
400 AM CDT THU APR 17 2014

NOTES: SATELLITE DATA IS BEING USED TO AUGMENT CLOUD COVER ABOVE
       12000 FEET.
       "FAIR" INDICATES FEW OR NO CLOUDS BELOW 12,000 FEET WITH NO
       SIGNIFICANT WEATHER AND/OR OBSTRUCTIONS TO VISIBILITY.

  * THESE STATIONS DO NOT REPORT WEATHER SUCH AS RAIN...SNOW OR FOG.

NEZ001>004-019>022-054>056-171000-
NEBRASKA PANHANDLE

CITY           SKY/WX    TMP DP  RH WIND       PRES   REMARKS
SCOTTSBLUFF    CLOUDY    34  29  82 E12       30.14F WCI  25
ALLIANCE       CLOUDY    31  27  85 S8        30.15F WCI  23
CHADRON        MOCLDY    31  28  89 CALM      30.15F
KIMBALL        CLOUDY    31  29  94 SE9       30.09S FOG     WCI  23
SIDNEY         CLOUDY    32  30  92 E9        30.13F FOG     WCI  24
$$

NEZ057>060-069>072-079>082-171000-
SOUTHWEST NEBRASKA

CITY           SKY/WX    TMP DP  RH WIND       PRES   REMARKS
NORTH PLATTE   CLOUDY    30  24  78 N7        30.22R WCI  23
IMPERIAL       CLOUDY    32  27  81 E8        30.20R WCI  25
LEXINGTON      CLOUDY    32  27  79 N9        30.23R WCI  25
MCCOOK         CLOUDY    33  27  78 NE9       30.22S WCI  25
OGALLALA       CLOUDY    33  27  80 NE7       30.19R WCI  27
$$

NEZ005>010-023>029-035>040-094-171000-
NORTH CENTRAL NEBRASKA

CITY           SKY/WX    TMP DP  RH WIND       PRES   REMARKS
VALENTINE      CLEAR     20  17  88 SW5       30.23R WCI  13
AINSWORTH      PTCLDY    25  21  85 W3        30.23R
BROKEN BOW     CLOUDY    28  23  81 N10       30.22R WCI  19
O`NEILL        CLOUDY    31  22  71 N6        30.24R WCI  25
ORD            CLOUDY    30  23  75 N12       30.22S WCI  20
THEDFORD       CLOUDY    30  24  77 N3        30.23R
$$

NEZ041-046>049-061>064-073>077-083>087-171000-
SOUTH CENTRAL NEBRASKA

CITY           SKY/WX    TMP DP  RH WIND       PRES   REMARKS
GRAND ISLAND   CLOUDY    32  24  72 N15       30.24R WCI  22
AURORA         CLOUDY    32  26  78 N16       30.22S WCI  22
HASTINGS       CLOUDY    32  24  72 N15       30.21F WCI  22
HEBRON         CLOUDY    34  26  73 N10       30.22R WCI  26
HOLDREGE       CLOUDY    32  26  77 N9        30.22R WCI  24
KEARNEY *      CLOUDY    30  25  80 N14       30.23S WCI  20
YORK           CLOUDY    32  27  80 N10       30.22S WCI  24
$$

NEZ011>018-030>034-042>045-171000-
NORTHEAST NEBRASKA

CITY           SKY/WX    TMP DP  RH WIND       PRES   REMARKS
NORFOLK        CLOUDY    31  23  72 N17       30.21R WCI  19
ALBION         CLOUDY    31  24  74 N7        30.24R WCI  24
BLAIR          CLOUDY    32  26  79 NW14G21   30.18R WCI  22
COLUMBUS *     CLOUDY    32  21  64 NW13      30.24R WCI  22
FREMONT        CLOUDY    32  26  77 NW18      30.21R WCI  21
TEKAMAH        CLOUDY    33  24  69 NW20G25   30.20R WCI  21
$$

NEZ050>053-065>068-078-088>093-171000-
SOUTHEAST NEBRASKA

CITY           SKY/WX    TMP DP  RH WIND       PRES   REMARKS
LINCOLN        CLOUDY    35  25  66 N18G25    30.22R WCI  24
OMAHA EPPLEY   CLOUDY    34  26  72 NW21      30.19R WCI  22
BEATRICE       CLOUDY    34  26  73 N17G23    30.22R WCI  24
FALLS CITY     CLOUDY    36  28  73 NW17G23   30.19R WCI  26
NEBRASKA CITY  CLOUDY    35  28  77 N9        30.20R WCI  27
PLATTSMOUTH    CLOUDY    34  26  73 NW14      30.19R WCI  25
$$

NEZ044-045-051>053-067-171000-
OMAHA AREA

CITY           SKY/WX    TMP DP  RH WIND       PRES   REMARKS
OMAHA EPPLEY   CLOUDY    34  26  72 NW21      30.19R WCI  22
BLAIR          CLOUDY    32  26  79 NW14G21   30.18R WCI  22
FREMONT        CLOUDY    32  26  77 NW18      30.21R WCI  21
MILLARD        CLOUDY    34  26  74 NW13G20   30.20R WCI  25
OFFUTT AFB     CLOUDY    35  28  77 N9        30.19R WCI  27
PLATTSMOUTH    CLOUDY    34  26  73 NW14      30.19R WCI  25
WAHOO          CLOUDY    32  25  74 N14       30.21R WCI  22
$$



USA.gov is the U.S. government's official web portal to all federal, state and local government web resources and services.